| time (UTC) | temp F | wind direction | speed knots | gust knots | rain 1hr in | rain 24hr in | rain mn in | humidity % | barometer mb |
| 20260504130158 | 62 | 173 | 0.0 | 0.0 | 0.00 | 0.00 | 0.00 | 76 | 1010.7 |
| 20260504120122 | 56 | 138 | 0.0 | 0.0 | 0.00 | 0.00 | 0.00 | 90 | 1010.4 |
| 20260504110549 | 56 | 148 | 0.0 | 1.7 | 0.00 | 0.00 | 0.00 | 89 | 1010.0 |
| 20260504100511 | 57 | 123 | 0.0 | 0.0 | 0.00 | 0.00 | 0.00 | 85 | 1010.1 |
| 20260504081904 | 58 | 167 | 0.0 | 0.0 | 0.00 | 0.00 | 0.00 | 78 | 1010.4 |
| 20260504081401 | 58 | 123 | 0.0 | 0.0 | 0.00 | 0.00 | 0.00 | 78 | 1010.0 |
| 20260504080856 | 59 | 141 | 0.0 | 0.0 | 0.00 | 0.00 | 0.00 | 77 | 1010.4 |
| 20260504080354 | 59 | 140 | 0.0 | 0.9 | 0.00 | 0.00 | 0.00 | 77 | 1010.3 |
| 20260504070321 | 62 | 175 | 0.0 | 0.0 | 0.00 | 0.00 | 0.00 | 70 | 1010.6 |
| 20260504060241 | 63 | 109 | 0.9 | 0.9 | 0.00 | 0.00 | 0.00 | 64 | 1011.4 |
| 20260504050709 | 62 | 140 | 0.9 | 1.7 | 0.00 | 0.00 | 0.00 | 66 | 1012.1 |
| 20260504050206 | 61 | 176 | 0.0 | 0.9 | 0.00 | 0.00 | 0.00 | 70 | 1012.3 |
| 20260504045703 | 61 | 122 | 0.0 | 0.9 | 0.00 | 0.00 | 0.00 | 71 | 1012.2 |
| 20260504045158 | 61 | 142 | 0.0 | 0.9 | 0.00 | 0.00 | 0.00 | 70 | 1012.3 |
| 20260504044656 | 62 | 148 | 0.0 | 0.0 | 0.00 | 0.00 | 0.00 | 69 | 1012.5 |
| 20260504044153 | 62 | 129 | 0.9 | 4.3 | 0.00 | 0.00 | 0.00 | 68 | 1012.4 |
| 20260504043650 | 62 | 102 | 0.9 | 1.7 | 0.00 | 0.00 | 0.00 | 70 | 1012.5 |
| 20260504043147 | 62 | 104 | 0.0 | 0.0 | 0.00 | 0.00 | 0.00 | 69 | 1012.5 |
| 20260504042644 | 62 | 134 | 0.0 | 0.9 | 0.00 | 0.00 | 0.00 | 67 | 1012.6 |
| 20260504042141 | 62 | 102 | 0.9 | 0.9 | 0.00 | 0.00 | 0.00 | 67 | 1012.5 |
| 20260504041636 | 62 | 103 | 0.9 | 1.7 | 0.00 | 0.00 | 0.00 | 66 | 1012.7 |
| 20260504041133 | 62 | 101 | 0.9 | 1.7 | 0.00 | 0.00 | 0.00 | 67 | 1012.7 |
| 20260504040630 | 62 | 93 | 1.7 | 1.7 | 0.00 | 0.00 | 0.00 | 65 | 1012.7 |
| 20260504040127 | 62 | 120 | 0.0 | 0.0 | 0.00 | 0.00 | 0.00 | 67 | 1012.6 |
| 20260504035624 | 62 | 103 | 0.0 | 0.0 | 0.00 | 0.00 | 0.00 | 66 | 1012.8 |
| 20260504035120 | 63 | 155 | 0.0 | 0.0 | 0.00 | 0.00 | 0.00 | 65 | 1012.8 |
| 20260504034618 | 63 | 170 | 0.0 | 0.0 | 0.00 | 0.00 | 0.00 | 65 | 1012.9 |
| 20260504034115 | 63 | 102 | 0.0 | 0.0 | 0.00 | 0.00 | 0.00 | 62 | 1012.8 |
| 20260504033613 | 63 | 120 | 0.9 | 0.9 | 0.00 | 0.00 | 0.00 | 63 | 1012.8 |
| 20260504033110 | 64 | 158 | 0.9 | 0.9 | 0.00 | 0.00 | 0.00 | 64 | 1012.8 |
| 20260504032606 | 65 | 166 | 0.0 | 0.0 | 0.00 | 0.00 | 0.00 | 60 | 1012.8 |
| 20260504032104 | 65 | 106 | 2.6 | 2.6 | 0.00 | 0.00 | 0.00 | 58 | 1012.9 |
| 20260504031601 | 65 | 135 | 1.7 | 5.2 | 0.00 | 0.00 | 0.00 | 57 | 1012.9 |
| 20260504031056 | 65 | 93 | 0.9 | 4.3 | 0.00 | 0.00 | 0.00 | 57 | 1012.9 |
| 20260504030554 | 65 | 101 | 3.5 | 6.1 | 0.00 | 0.00 | 0.00 | 56 | 1012.8 |
| 20260504030050 | 65 | 120 | 2.6 | 5.2 | 0.00 | 0.00 | 0.00 | 56 | 1012.6 |
| 20260504025547 | 66 | 145 | 2.6 | 5.2 | 0.00 | 0.00 | 0.00 | 56 | 1012.7 |
| 20260504025044 | 66 | 105 | 3.5 | 5.2 | 0.00 | 0.00 | 0.00 | 55 | 1012.7 |
| 20260504024541 | 66 | 90 | 1.7 | 5.2 | 0.00 | 0.00 | 0.00 | 55 | 1012.6 |
| 20260504024038 | 66 | 118 | 2.6 | 4.3 | 0.00 | 0.00 | 0.00 | 54 | 1012.8 |
| 20260504023534 | 66 | 142 | 2.6 | 4.3 | 0.00 | 0.00 | 0.00 | 53 | 1012.5 |
| 20260504023030 | 66 | 111 | 2.6 | 6.1 | 0.00 | 0.00 | 0.00 | 53 | 1012.6 |
| 20260504022526 | 67 | 126 | 3.5 | 6.1 | 0.00 | 0.00 | 0.00 | 53 | 1012.6 |
| 20260504022023 | 67 | 112 | 3.5 | 6.1 | 0.00 | 0.00 | 0.00 | 52 | 1012.5 |
| 20260504021521 | 67 | 143 | 2.6 | 5.2 | 0.00 | 0.00 | 0.00 | 52 | 1012.7 |
| 20260504021017 | 67 | 124 | 2.6 | 4.3 | 0.00 | 0.00 | 0.00 | 51 | 1012.5 |
| 20260504020514 | 67 | 119 | 1.7 | 4.3 | 0.00 | 0.00 | 0.00 | 51 | 1012.6 |
| 20260504020011 | 67 | 87 | 1.7 | 1.7 | 0.00 | 0.00 | 0.00 | 50 | 1012.5 |
| 20260504015507 | 67 | 114 | 2.6 | 5.2 | 0.00 | 0.00 | 0.00 | 50 | 1012.6 |
| 20260504015003 | 67 | 94 | 2.6 | 2.6 | 0.00 | 0.00 | 0.00 | 50 | 1012.4 |
| 20260504014459 | 67 | 141 | 1.7 | 2.6 | 0.00 | 0.00 | 0.00 | 51 | 1012.3 |
| 20260504013956 | 66 | 117 | 1.7 | 1.7 | 0.00 | 0.00 | 0.00 | 56 | 1012.2 |
| 20260504013455 | 67 | 132 | 1.7 | 1.7 | 0.00 | 0.00 | 0.00 | 55 | 1012.5 |
| 20260504012950 | 67 | 144 | 0.9 | 0.9 | 0.00 | 0.00 | 0.00 | 53 | 1012.5 |
| 20260504012449 | 68 | 130 | 0.9 | 1.7 | 0.00 | 0.00 | 0.00 | 51 | 1012.4 |
| 20260504011946 | 69 | 137 | 1.7 | 2.6 | 0.00 | 0.00 | 0.00 | 50 | 1012.2 |
| 20260504011442 | 69 | 161 | 0.0 | 1.7 | 0.00 | 0.00 | 0.00 | 47 | 1012.3 |
| 20260504010938 | 69 | 144 | 0.9 | 4.3 | 0.00 | 0.00 | 0.00 | 44 | 1012.2 |
| 20260504010434 | 70 | 111 | 1.7 | 1.7 | 0.00 | 0.00 | 0.00 | 48 | 1012.2 |
| 20260504005931 | 70 | 193 | 0.9 | 2.6 | 0.00 | 0.00 | 0.00 | 43 | 1012.1 |
| 20260504005427 | 71 | 152 | 1.7 | 4.3 | 0.00 | 0.00 | 0.00 | 42 | 1012.2 |
| 20260504004925 | 71 | 138 | 0.9 | 4.3 | 0.00 | 0.00 | 0.00 | 42 | 1012.1 |
| 20260504004423 | 71 | 105 | 2.6 | 5.2 | 0.00 | 0.00 | 0.00 | 41 | 1012.0 |
| 20260504003919 | 71 | 86 | 2.6 | 5.2 | 0.00 | 0.00 | 0.00 | 41 | 1012.2 |
| 20260504003416 | 71 | 130 | 2.6 | 6.1 | 0.00 | 0.00 | 0.00 | 41 | 1012.2 |
| 20260504002913 | 72 | 175 | 1.7 | 2.6 | 0.00 | 0.00 | 0.00 | 40 | 1012.1 |
| 20260504002409 | 72 | 112 | 0.9 | 2.6 | 0.00 | 0.00 | 0.00 | 40 | 1012.2 |
| 20260504001907 | 73 | 149 | 0.9 | 5.2 | 0.00 | 0.00 | 0.00 | 39 | 1012.3 |
| 20260504001405 | 73 | 135 | 1.7 | 6.1 | 0.00 | 0.00 | 0.00 | 38 | 1012.3 |
| 20260504000901 | 73 | 141 | 1.7 | 4.3 | 0.00 | 0.00 | 0.00 | 37 | 1012.3 |
| 20260504000358 | 74 | 121 | 3.5 | 6.1 | 0.00 | 0.00 | 0.00 | 37 | 1012.3 |
| 20260503235855 | 74 | 129 | 4.3 | 7.0 | 0.00 | 0.00 | 0.00 | 36 | 1012.4 |
| 20260503235353 | 75 | 241 | 3.5 | 5.2 | 0.00 | 0.00 | 0.00 | 37 | 1012.5 |
| 20260503234850 | 74 | 231 | 2.6 | 7.8 | 0.00 | 0.00 | 0.00 | 35 | 1012.4 |
| 20260503234348 | 74 | 161 | 1.7 | 7.0 | 0.00 | 0.00 | 0.00 | 35 | 1012.5 |
| 20260503233845 | 75 | 169 | 1.7 | 8.7 | 0.00 | 0.00 | 0.00 | 35 | 1012.4 |
| 20260503233342 | 75 | 164 | 1.7 | 7.8 | 0.00 | 0.00 | 0.00 | 37 | 1012.5 |
| 20260503232838 | 75 | 120 | 3.5 | 7.8 | 0.00 | 0.00 | 0.00 | 34 | 1012.7 |
| 20260503232335 | 75 | 266 | 1.7 | 9.6 | 0.00 | 0.00 | 0.00 | 34 | 1012.8 |
| 20260503231833 | 75 | 248 | 3.5 | 8.7 | 0.00 | 0.00 | 0.00 | 34 | 1012.8 |
| 20260503231330 | 75 | 143 | 4.3 | 11.3 | 0.00 | 0.00 | 0.00 | 34 | 1012.7 |
| 20260503230826 | 75 | 204 | 2.6 | 5.2 | 0.00 | 0.00 | 0.00 | 37 | 1012.8 |
| 20260503230323 | 75 | 181 | 3.5 | 8.7 | 0.00 | 0.00 | 0.00 | 33 | 1012.6 |
| 20260503225821 | 75 | 216 | 4.3 | 8.7 | 0.00 | 0.00 | 0.00 | 33 | 1012.8 |
| 20260503225316 | 75 | 195 | 7.8 | 15.6 | 0.00 | 0.00 | 0.00 | 33 | 1012.7 |
| 20260503224813 | 75 | 249 | 7.0 | 8.7 | 0.00 | 0.00 | 0.00 | 32 | 1012.8 |
| 20260503224310 | 75 | 118 | 11.3 | 14.8 | 0.00 | 0.00 | 0.00 | 33 | 1012.9 |
| 20260503223808 | 75 | 257 | 3.5 | 8.7 | 0.00 | 0.00 | 0.00 | 32 | 1012.9 |
| 20260503223306 | 75 | 229 | 3.5 | 6.1 | 0.00 | 0.00 | 0.00 | 33 | 1013.0 |
| 20260503222801 | 75 | 136 | 5.2 | 7.8 | 0.00 | 0.00 | 0.00 | 33 | 1013.2 |
| 20260503222300 | 75 | 154 | 4.3 | 12.2 | 0.00 | 0.00 | 0.00 | 33 | 1013.1 |
| 20260503221757 | 75 | 190 | 7.8 | 11.3 | 0.00 | 0.00 | 0.00 | 30 | 1013.2 |
| 20260503221255 | 75 | 147 | 3.5 | 9.6 | 0.00 | 0.00 | 0.00 | 31 | 1013.2 |
| 20260503220751 | 75 | 262 | 7.8 | 9.6 | 0.00 | 0.00 | 0.00 | 31 | 1013.3 |
| 20260503220248 | 75 | 147 | 7.8 | 12.2 | 0.00 | 0.00 | 0.00 | 31 | 1013.2 |
| 20260503215745 | 76 | 192 | 6.1 | 11.3 | 0.00 | 0.00 | 0.00 | 30 | 1013.5 |
| 20260503215242 | 75 | 197 | 4.3 | 7.8 | 0.00 | 0.00 | 0.00 | 33 | 1013.5 |
| 20260503214740 | 75 | 158 | 2.6 | 13.9 | 0.00 | 0.00 | 0.00 | 31 | 1013.5 |
| 20260503214237 | 75 | 256 | 6.1 | 7.8 | 0.00 | 0.00 | 0.00 | 31 | 1013.6 |
| 20260503213735 | 75 | 151 | 6.1 | 15.6 | 0.00 | 0.00 | 0.00 | 31 | 1013.7 |
| 20260503213232 | 75 | 209 | 4.3 | 11.3 | 0.00 | 0.00 | 0.00 | 31 | 1013.7 |
| 20260503212728 | 75 | 222 | 4.3 | 9.6 | 0.00 | 0.00 | 0.00 | 30 | 1014.0 |
| 20260503212226 | 75 | 161 | 6.1 | 13.0 | 0.00 | 0.00 | 0.00 | 31 | 1014.0 |
| 20260503211724 | 75 | 206 | 6.1 | 9.6 | 0.00 | 0.00 | 0.00 | 31 | 1014.0 |
| 20260503211220 | 75 | 193 | 4.3 | 8.7 | 0.00 | 0.00 | 0.00 | 32 | 1014.3 |
| 20260503210715 | 75 | 139 | 4.3 | 9.6 | 0.00 | 0.00 | 0.00 | 33 | 1014.1 |
| 20260503210213 | 74 | 216 | 1.7 | 7.0 | 0.00 | 0.00 | 0.00 | 32 | 1014.3 |
| 20260503205708 | 75 | 227 | 7.0 | 8.7 | 0.00 | 0.00 | 0.00 | 30 | 1014.5 |
| 20260503205205 | 74 | 247 | 4.3 | 7.8 | 0.00 | 0.00 | 0.00 | 31 | 1014.7 |
| 20260503204701 | 75 | 229 | 7.0 | 9.6 | 0.00 | 0.00 | 0.00 | 30 | 1014.6 |
| 20260503204159 | 74 | 147 | 4.3 | 12.2 | 0.00 | 0.00 | 0.00 | 33 | 1014.8 |
| 20260503203656 | 75 | 174 | 6.1 | 13.0 | 0.00 | 0.00 | 0.00 | 31 | 1014.8 |
| 20260503203154 | 74 | 140 | 6.1 | 7.0 | 0.00 | 0.00 | 0.00 | 33 | 1014.9 |
| 20260503202650 | 74 | 162 | 5.2 | 9.6 | 0.00 | 0.00 | 0.00 | 31 | 1015.0 |
| 20260503202148 | 74 | 254 | 7.8 | 9.6 | 0.00 | 0.00 | 0.00 | 31 | 1015.0 |
| 20260503201646 | 74 | 212 | 5.2 | 12.2 | 0.00 | 0.00 | 0.00 | 32 | 1015.1 |
| 20260503201143 | 74 | 203 | 7.0 | 8.7 | 0.00 | 0.00 | 0.00 | 31 | 1015.2 |
| 20260503200639 | 73 | 180 | 5.2 | 7.0 | 0.00 | 0.00 | 0.00 | 31 | 1015.2 |
| 20260503200136 | 74 | 161 | 7.0 | 12.2 | 0.00 | 0.00 | 0.00 | 32 | 1015.4 |
| 20260503195633 | 73 | 201 | 2.6 | 6.1 | 0.00 | 0.00 | 0.00 | 35 | 1015.5 |
| 20260503195130 | 73 | 240 | 2.6 | 7.8 | 0.00 | 0.00 | 0.00 | 32 | 1015.6 |
| 20260503194627 | 73 | 189 | 7.0 | 9.6 | 0.00 | 0.00 | 0.00 | 32 | 1015.7 |
| 20260503194122 | 73 | 233 | 6.1 | 9.6 | 0.00 | 0.00 | 0.00 | 33 | 1016.0 |
| 20260503193620 | 73 | 233 | 7.8 | 11.3 | 0.00 | 0.00 | 0.00 | 31 | 1015.7 |
| 20260503193114 | 73 | 119 | 3.5 | 9.6 | 0.00 | 0.00 | 0.00 | 36 | 1016.1 |
| 20260503192610 | 73 | 152 | 5.2 | 14.8 | 0.00 | 0.00 | 0.00 | 32 | 1016.1 |
| 20260503192106 | 72 | 189 | 4.3 | 13.0 | 0.00 | 0.00 | 0.00 | 33 | 1016.4 |
| 20260503191557 | 73 | 217 | 3.5 | 6.1 | 0.00 | 0.00 | 0.00 | 34 | 1016.3 |
| 20260503191054 | 72 | 159 | 3.5 | 7.0 | 0.00 | 0.00 | 0.00 | 36 | 1016.3 |
| 20260503190551 | 72 | 179 | 4.3 | 6.1 | 0.00 | 0.00 | 0.00 | 33 | 1016.5 |
| 20260503190048 | 71 | 170 | 2.6 | 7.8 | 0.00 | 0.00 | 0.00 | 35 | 1016.6 |
| 20260503185539 | 72 | 238 | 5.2 | 7.8 | 0.00 | 0.00 | 0.00 | 33 | 1016.6 |
| 20260503185039 | 71 | 265 | 4.3 | 9.6 | 0.00 | 0.00 | 0.00 | 36 | 1016.9 |
| 20260503184535 | 71 | 150 | 7.8 | 13.0 | 0.00 | 0.00 | 0.00 | 36 | 1017.0 |
| 20260503184032 | 70 | 153 | 2.6 | 8.7 | 0.00 | 0.00 | 0.00 | 36 | 1017.2 |
| 20260503183528 | 71 | 298 | 5.2 | 7.0 | 0.00 | 0.00 | 0.00 | 34 | 1017.3 |
| 20260503183025 | 71 | 200 | 4.3 | 6.1 | 0.00 | 0.00 | 0.00 | 36 | 1017.2 |
| 20260503182524 | 70 | 132 | 1.7 | 6.1 | 0.00 | 0.00 | 0.00 | 39 | 1017.6 |
| 20260503182021 | 70 | 138 | 1.7 | 11.3 | 0.00 | 0.00 | 0.00 | 39 | 1017.8 |
| 20260503181518 | 69 | 101 | 2.6 | 7.0 | 0.00 | 0.00 | 0.00 | 37 | 1017.7 |
| 20260503181014 | 70 | 121 | 2.6 | 9.6 | 0.00 | 0.00 | 0.00 | 36 | 1018.0 |
| 20260503180512 | 69 | 191 | 0.0 | 6.1 | 0.00 | 0.00 | 0.00 | 37 | 1017.8 |
| 20260503180009 | 70 | 150 | 4.3 | 7.0 | 0.00 | 0.00 | 0.00 | 35 | 1017.9 |
| 20260503175507 | 70 | 195 | 1.7 | 7.8 | 0.00 | 0.00 | 0.00 | 36 | 1018.1 |
| 20260503175003 | 69 | 115 | 4.3 | 12.2 | 0.00 | 0.00 | 0.00 | 35 | 1018.3 |
| 20260503174501 | 69 | 209 | 4.3 | 7.0 | 0.00 | 0.00 | 0.00 | 39 | 1018.4 |
| 20260503173956 | 69 | 202 | 6.1 | 8.7 | 0.00 | 0.00 | 0.00 | 40 | 1018.5 |
| 20260503173452 | 68 | 148 | 4.3 | 12.2 | 0.00 | 0.00 | 0.00 | 40 | 1018.6 |
| 20260503172949 | 67 | 156 | 4.3 | 7.0 | 0.00 | 0.00 | 0.00 | 38 | 1018.6 |
| 20260503172446 | 68 | 221 | 8.7 | 9.6 | 0.00 | 0.00 | 0.00 | 38 | 1018.7 |
| 20260503171943 | 67 | 276 | 2.6 | 11.3 | 0.00 | 0.00 | 0.00 | 36 | 1019.2 |
| 20260503171439 | 67 | 172 | 5.2 | 13.0 | 0.00 | 0.00 | 0.00 | 40 | 1019.0 |
| 20260503170937 | 67 | 148 | 4.3 | 11.3 | 0.00 | 0.00 | 0.00 | 37 | 1019.1 |
| 20260503170433 | 66 | 154 | 2.6 | 8.7 | 0.00 | 0.00 | 0.00 | 37 | 1019.3 |
| 20260503150825 | 60 | 216 | 8.7 | 9.6 | 0.00 | 0.00 | 0.00 | 47 | 1020.5 |
| 20260503150321 | 60 | 125 | 7.0 | 7.8 | 0.00 | 0.00 | 0.00 | 48 | 1020.2 |
| 20260503140246 | 53 | 136 | 0.0 | 2.6 | 0.00 | 0.00 | 0.00 | 77 | 1021.0 |
| 20260503131215 | 45 | 161 | 0.0 | 0.0 | 0.00 | 0.00 | 0.00 | 94 | 1021.1 |
| 20260503130713 | 44 | 164 | 0.0 | 0.0 | 0.00 | 0.00 | 0.00 | 96 | 1020.9 |